www.pogodaiklimat.ru

Погода и климат >> Архив погоды >> Антарктида >> Дэвис


ПОГОДА на Дэвисе

  • Прогноз погоды на Дэвисе
  • Монитор погоды на Дэвисе

АРХИВ ПОГОДЫ на Дэвисе

Время (UTC), дата Ветер
(напр.,м/с)
 
Видим.   Явления Облачность Т
(С)
Тd
(С)
f
(%)
Тe
(С)
Тes
(С)
Комфортность P
(гПа)
Po
(гПа)
Тmin
(С)
Tmax
(С)
R
(мм)
R24
(мм)
S
(см)
18 17.06 штиль 0 30 км 10/0
[Cs]
-19.2 -25.4 58 -19 -19 984.6 982.3
00 18.06 штиль 0 30 км 10/0
[Cs]
-18.0 -24.6 56 -18 -18 983.4 981.1
06 18.06 штиль 0 30 км 10/0
[Cs]
-18.9 -25.7 55 -19 -19 981.5 979.2
12 18.06 З 4 30 км 5/0
[Ci fib]
-22.1 -28.9 54 -32 -32 опасность
обморожения
980.2 977.9
18 18.06 В 8 30 км 5/0
[Ci fib]
-16.7 -24.5 51 -28 -28 980.0 977.7
00 19.06 В 3 30 км 3/0
[Ci fib]
-19.4 -24.8 62 -27 -27 981.5 979.2
06 19.06 СВ 1 30 км 8/0
[Ci fib]
-21.3 -25.3 70 -25 -25 984.0 981.7
12 19.06 С 2 30 км слаб. снег 10/0
[Ac As]
-23.4 -26.2 78 -30 -30 987.4 985.0
18 19.06 З 2 15 км слаб. снег 10/0
[Ac As]
-23.8 -26.8 76 -30 -30 990.4 988.0
00 20.06 З 5 15 км слаб. снег 10/0
[Ac As]
-27.8 -31.3 72 -40 -40 опасность
обморожения
995.8 993.4
06 20.06 штиль 0 15 км {снег} 10/10 1500 м
[Sc]
-29.9 -33.3 72 -30 -30 1001.2 998.7
12 20.06 штиль 0 15 км слаб. снег 10/10 1500 м
[Sc]
-26.6 -29.8 74 -27 -27 1003.7 1001.2
18 20.06 В 3 15 км слаб. снег 10/10 1500 м
[Sc]
-22.6 -25.2 79 -30 -30 1001.8 999.3
00 21.06 В 9 12 км слаб. снег 10/0 2000 м
[As op]
-8.5 -9.8 90 -19 -19 996.5 994.1
06 21.06 В 20 6000 м слаб. снег {метель} 10/0 2000 м
[As op]
-6.8 -8.7 86 -20 -20 992.4 990.1
12 21.06 В 21 500 м сильная метель ?/? -8.1 -9.7 88 -22 -22 990.7 988.4
18 21.06 В 14 500 м сильная метель ?/? -7.3 -10.2 80 -19 -19 990.4 988.2
00 22.06 В 17 5000 м метель 10/0
[As op]
-7.5 -11.2 75 -20 -20 989.8 987.5
06 22.06 В 15 5000 м метель 10/0 2000 м
[As op]
-6.5 -10.0 76 -18 -18 990.9 988.7
12 22.06 В 16 5000 м метель 10/0 2000 м
[As op]
-6.9 -10.2 77 -19 -19 992.2 989.9
18 22.06 В 10 15 км {метель} 9/0
[Ac trans]
-8.8 -15.8 57 -19 -19 994.8 992.5
00 23.06 штиль 0 20 км 9/0
[Ac trans]
-10.1 -18.1 52 -10 -10 993.5 991.2
06 23.06 В 7 25 км 9/0
[Ac trans]
-9.7 -18.7 48 -18 -18 991.4 989.1
12 23.06 В 9 25 км 5/0
[Ac trans]
-10.6 -20.0 46 -21 -21 992.2 989.9
18 23.06 В 6 25 км 9/0
[Ac trans]
-8.4 -18.5 44 -16 -16 992.2 989.9
00 24.06 В 5 25 км 8/0
[Ac trans]
-8.0 -10.5 82 -15 -15 992.7 990.4
06 24.06 В 4 16 км слаб. снег 10/0 2000 м
[As op]
-7.6 -10.4 80 -14 -14 992.3 990.0
12 24.06 В 3 15 км слаб. снег 10/0 2000 м
[As op]
-8.3 -9.9 88 -14 -14 991.9 989.6

 

Местоположение метеостанции Дэвис (Антарктида): широта -69.37 долгота 76.37 высота над уровнем моря 18 м.

В архиве по умолчанию представлена погода на Дэвисе за последнюю неделю. Архивные данные за месяц целиком и за предыдущие месяцы, начиная с января 2011 года, Вы можете получить, выбрав интересующий диапазон дат из раскрывающегося списка и нажав кнопку "Ввод!".


*Определитесь, кто Вы:
робот инопланетянин человек

Внимание! Время в таблицах - всемирное. Для получения местного времени необходимо прибавить поправку, которая равна 0 ч.

Смотрите также архив погоды в соседних городах и на ближайших метеорологических станциях:

Погода на Прогрессе (Антарктида) (1 км)
Погода на Бхарати (Антарктида) (8 км)
Погода на Davis (Антарктида) (108 км)
Погода на Дружной-4 (Антарктида) (111 км)
Погода на Davis (Whoop Whoop) (Антарктида) (140 км)
Погода на Леднике Эймери (Антарктида) (299 км)
Погода на Моусоне (Антарктида) (583 км)
Погода в Мирном (Антарктида) (759 км)
Погода на Dome Plateau Eagle (Антарктида) (783 км)
Погода на Davis АМС (Антарктида) (1223 км)

Пояснения к столбцам:

Ветер - указаны скорость ветра в м/с - средняя за 10 мин, порывы в срок и между сроками (в фигурных скобках) и направление, откуда дует ветер: С - северный, СВ - северо-восточный, В - восточный, ЮВ - юго-восточный, Ю - южный, ЮЗ - юго-западный, З - западный, СЗ - северо-западный.
Видимость - горизонтальная дальность видимости в метрах или километрах. При видимости от 1 до 10 км при отсутствии осадков обычно наблюдается дымка, при ухудшении видимости до 1 км и менее - туман. В сухую погоду видимость может ухудшаться дымом, пылью или мглою.
Явления - указаны атмосферные явления, наблюдавшиеся в срок или в последний час перед сроком; фигурными скобками обозначены явления, наблюдавшиеся между сроками (за 1-3 часа до срока); квадратными скобками обозначены град или гололедные отложения с указанием их диаметра в мм.
Облачность - указаны через наклонную черту общая и нижняя облачность в баллах и высота нижней границы облаков в метрах; квадратными скобками обозначены формы облаков: Ci - перистые, Cs - перисто-слоистые, Cc - перисто-кучевые, Ac - высококучевые, As - высокослоистые, Sc - слоисто-кучевые, Ns - слоисто-дождевые, Cu - кучевые, Cb - кучево-дождевые. Подробнее классификацию облаков см. в Атласе облаков (PDF).
T - Температура воздуха - температура, измеренная на высоте 2 м над землей.
Td - Температура точки росы - температура, при понижении до которой содержащийся в воздухе водяной пар достигнет насыщения.
f - Относительная влажность воздуха - влажноcть воздуха, измеренная на высоте 2 м над землей.
Te - Эффективная температура - температура, которую ощущает одетый по сезону человек в тени. Характеристика душности погоды. При расчете учитывается влияние влажности воздуха и скорости ветра на теплоощущения человека.
Tes - Эффективная температура на солнце - температура, которую ощущает человек, с поправкой на солнечный нагрев. Характеристика знойности погоды. Зависит от высоты солнца над горизонтом, облачности и скорости ветра. Ночью, в пасмурную погоду, а также при ветре 12 м/с и более поправка равна нулю.
P - Атмосферное давление - приведенное к уровню моря атмосферное давление.
Po - Атмосферное давление - измеренное на уровне метеостанции атмосферное давление.
Tmin - Минимальная температура - минимум температуры воздуха на высоте 2 м над землей.
Tmax - Максимальная температура - максимум температуры воздуха на высоте 2 м над землей.
R - Количество осадков - Количество выпавших осадков за период времени, мм. При наведении курсора мыши на число - период времени, за который выпало указанное количество осадков.
R24 - Количество осадков - Количество выпавших осадков за 24 часа, мм.
S - Снежный покров - Высота снежного покрова, см. При наведении курсора мыши на число - состояние снежного покрова и степень покрытия местности в баллах.